When you browse on this site, cookies collect data to enhance your experience and personalize the content and advertising you see.
Visit our Privacy Policy to learn more. By continuing to use the site, you agree to this use of cookies and data.
  • In Deutschland
  • Länderverzeichnis
  • Für 7 Tage
  • Wassertemperatur
  • Satellitenkarten
  • Wetterkarte
  • Widgets
  • user-avatar
    Anmelden

    Stündliche Wetter Nachiczewan

    Heute, 12 Dezember, Mittwoch

    Zeit Temperatur Niederschläge Wind Luftdruck Luftfeuchtigkeit
    00:00 +7°C° 0 mm 2 m/S 685 mmHg 65%
    01:00 +7°C° 0 mm 2 m/S 685 mmHg 67%
    02:00 +7°C° 0 mm 2 m/S 685 mmHg 69%
    03:00 +7°C° 0 mm 3 m/S 685 mmHg 69%
    04:00 +7°C° 0 mm 3 m/S 685 mmHg 71%
    05:00 +7°C° 0 mm 3 m/S 685 mmHg 72%
    06:00 +5°C° 0 mm 3 m/S 685 mmHg 74%
    07:00 +7°C° 0 mm 3 m/S 685 mmHg 72%
    08:00 +8°C° 0 mm 3 m/S 684 mmHg 70%
    09:00 +9°C° 0 mm 3 m/S 684 mmHg 68%
    10:00 +10°C° 0 mm 4 m/S 684 mmHg 63%
    11:00 +10°C° 0 mm 5 m/S 683 mmHg 57%
    12:00 +12°C° 0 mm 5 m/S 683 mmHg 52%
    13:00 +13°C° 0 mm 5 m/S 683 mmHg 50%
    14:00 +13°C° 0 mm 6 m/S 682 mmHg 48%
    15:00 +13°C° 0 mm 6 m/S 682 mmHg 47%
    16:00 +12°C° 0 mm 5 m/S 682 mmHg 50%
    17:00 +10°C° 0 mm 5 m/S 682 mmHg 53%
    18:00 +10°C° 0 mm 4 m/S 682 mmHg 56%
    19:00 +8°C° 0 mm 4 m/S 682 mmHg 57%
    20:00 +9°C° 0 mm 3 m/S 682 mmHg 58%
    21:00 +9°C° 0 mm 3 m/S 682 mmHg 58%
    22:00 +8°C° 0 mm 2 m/S 682 mmHg 60%
    23:00 +8°C° 0 mm 2 m/S 682 mmHg 62%

    Morgen, 13 Dezember, Donnerstag

    Zeit Temperatur Niederschläge Wind Luftdruck Luftfeuchtigkeit
    00:00 +8°C° 0 mm 2 m/S 682 mmHg 64%
    01:00 +7°C° 0 mm 2 m/S 681 mmHg 65%
    02:00 +7°C° 0 mm 2 m/S 681 mmHg 67%
    03:00 +7°C° 0 mm 3 m/S 681 mmHg 68%
    04:00 +7°C° 0.2 mm 3 m/S 681 mmHg 70%
    05:00 +7°C° 0.2 mm 3 m/S 681 mmHg 71%
    06:00 +7°C° 0.2 mm 3 m/S 682 mmHg 73%
    07:00 +7°C° 0.5 mm 2 m/S 682 mmHg 74%
    08:00 +7°C° 0.5 mm 2 m/S 682 mmHg 75%
    09:00 +8°C° 0.5 mm 1 m/S 682 mmHg 75%
    10:00 +8°C° 0.3 mm 2 m/S 683 mmHg 73%
    11:00 +8°C° 0.3 mm 2 m/S 683 mmHg 70%
    12:00 +9°C° 0.3 mm 2 m/S 683 mmHg 68%
    13:00 +9°C° 0.1 mm 2 m/S 683 mmHg 65%
    14:00 +9°C° 0.1 mm 2 m/S 684 mmHg 62%
    15:00 +9°C° 0.1 mm 2 m/S 684 mmHg 60%
    16:00 +8°C° 0 mm 2 m/S 685 mmHg 62%
    17:00 +7°C° 0 mm 2 m/S 686 mmHg 64%
    18:00 +6°C° 0 mm 2 m/S 687 mmHg 65%
    19:00 +6°C° 0 mm 2 m/S 687 mmHg 64%
    20:00 +6°C° 0 mm 2 m/S 688 mmHg 62%
    21:00 +5°C° 0 mm 2 m/S 688 mmHg 61%
    22:00 +5°C° 0 mm 2 m/S 689 mmHg 61%
    23:00 +5°C° 0 mm 2 m/S 689 mmHg 61%

    übermorgen, 14 Dezember, Freitag

    Zeit Temperatur Niederschläge Wind Luftdruck Luftfeuchtigkeit
    00:00 +4°C° 0 mm 2 m/S 690 mmHg 62%
    01:00 +4°C° 0 mm 2 m/S 690 mmHg 62%
    02:00 +3°C° 0 mm 2 m/S 690 mmHg 63%
    03:00 +4°C° 0 mm 1 m/S 690 mmHg 63%
    04:00 +4°C° 0 mm 1 m/S 691 mmHg 64%
    05:00 +4°C° 0 mm 1 m/S 691 mmHg 64%
    06:00 +3°C° 0 mm 1 m/S 691 mmHg 65%
    07:00 +4°C° 0 mm 1 m/S 691 mmHg 61%
    08:00 +5°C° 0 mm 1 m/S 691 mmHg 58%
    09:00 +6°C° 0 mm 1 m/S 691 mmHg 54%
    10:00 +7°C° 0 mm 1 m/S 691 mmHg 52%
    11:00 +8°C° 0 mm 1 m/S 690 mmHg 50%
    12:00 +8°C° 0 mm 1 m/S 690 mmHg 49%
    13:00 +9°C° 0 mm 1 m/S 689 mmHg 49%
    14:00 +9°C° 0 mm 1 m/S 689 mmHg 49%
    15:00 +8°C° 0 mm 2 m/S 689 mmHg 49%
    16:00 +7°C° 0 mm 2 m/S 689 mmHg 52%
    17:00 +8°C° 0 mm 1 m/S 689 mmHg 55%
    18:00 +7°C° 0 mm 1 m/S 690 mmHg 58%
    19:00 +6°C° 0 mm 1 m/S 690 mmHg 59%
    20:00 +6°C° 0 mm 1 m/S 690 mmHg 60%
    21:00 +5°C° 0 mm 1 m/S 690 mmHg 62%
    22:00 +5°C° 0 mm 1 m/S 690 mmHg 62%
    23:00 +4°C° 0 mm 2 m/S 691 mmHg 63%

    15 Dezember, Samstag

    Zeit Temperatur Niederschläge Wind Luftdruck Luftfeuchtigkeit
    00:00 +4°C° 0 mm 2 m/S 691 mmHg 64%
    01:00 +3°C° 0 mm 2 m/S 691 mmHg 65%
    02:00 +4°C° 0 mm 1 m/S 691 mmHg 66%
    03:00 +4°C° 0 mm 1 m/S 691 mmHg 67%
    04:00 +3°C° 0 mm 1 m/S 691 mmHg 67%
    05:00 +3°C° 0 mm 1 m/S 691 mmHg 68%
    06:00 +3°C° 0 mm 1 m/S 691 mmHg 68%
    07:00 +4°C° 0 mm 1 m/S 692 mmHg 64%
    08:00 +5°C° 0 mm 1 m/S 692 mmHg 60%
    09:00 +6°C° 0 mm 1 m/S 693 mmHg 56%
    10:00 +7°C° 0 mm 1 m/S 692 mmHg 54%
    11:00 +7°C° 0 mm 1 m/S 692 mmHg 52%
    12:00 +8°C° 0 mm 1 m/S 692 mmHg 50%
    13:00 +8°C° 0 mm 1 m/S 692 mmHg 50%
    14:00 +9°C° 0 mm 1 m/S 691 mmHg 49%
    15:00 +9°C° 0 mm 1 m/S 691 mmHg 49%
    16:00 +8°C° 0 mm 1 m/S 691 mmHg 52%
    17:00 +7°C° 0 mm 1 m/S 692 mmHg 55%
    18:00 +6°C° 0 mm 1 m/S 692 mmHg 58%
    19:00 +5°C° 0 mm 1 m/S 692 mmHg 58%
    20:00 +5°C° 0 mm 1 m/S 692 mmHg 58%
    21:00 +5°C° 0 mm 1 m/S 692 mmHg 58%
    22:00 +5°C° 0 mm 1 m/S 692 mmHg 58%
    23:00 +4°C° 0 mm 1 m/S 692 mmHg 58%

    16 Dezember, Sonntag

    Zeit Temperatur Niederschläge Wind Luftdruck Luftfeuchtigkeit
    00:00 +4°C° 0 mm 1 m/S 692 mmHg 58%
    01:00 +4°C° 0 mm 1 m/S 692 mmHg 58%
    02:00 +4°C° 0 mm 1 m/S 691 mmHg 58%
    03:00 +4°C° 0 mm 1 m/S 691 mmHg 58%
    04:00 +4°C° 0 mm 1 m/S 691 mmHg 59%
    05:00 +3°C° 0 mm 1 m/S 691 mmHg 59%
    06:00 +3°C° 0 mm 1 m/S 691 mmHg 59%
    07:00 +5°C° 0 mm 1 m/S 691 mmHg 56%
    08:00 +6°C° 0 mm 1 m/S 692 mmHg 52%
    09:00 +7°C° 0 mm 1 m/S 692 mmHg 48%
    10:00 +8°C° 0 mm 1 m/S 692 mmHg 47%
    11:00 +9°C° 0 mm 1 m/S 691 mmHg 45%
    12:00 +10°C° 0 mm 1 m/S 691 mmHg 43%
    13:00 +10°C° 0 mm 1 m/S 690 mmHg 43%
    14:00 +10°C° 0 mm 1 m/S 690 mmHg 43%
    15:00 +10°C° 0 mm 1 m/S 690 mmHg 43%
    16:00 +9°C° 0 mm 1 m/S 690 mmHg 46%
    17:00 +8°C° 0 mm 1 m/S 690 mmHg 49%
    18:00 +7°C° 0 mm 1 m/S 690 mmHg 53%
    19:00 +7°C° 0 mm 1 m/S 690 mmHg 52%
    20:00 +6°C° 0 mm 1 m/S 690 mmHg 52%
    21:00 +6°C° 0 mm 1 m/S 690 mmHg 52%
    22:00 +6°C° 0 mm 1 m/S 690 mmHg 52%
    23:00 +6°C° 0 mm 1 m/S 689 mmHg 52%

    17 Dezember, Montag

    Zeit Temperatur Niederschläge Wind Luftdruck Luftfeuchtigkeit
    00:00 +6°C° 0 mm 1 m/S 689 mmHg 52%
    01:00 +6°C° 0 mm 1 m/S 689 mmHg 52%
    02:00 +6°C° 0 mm 1 m/S 689 mmHg 52%
    03:00 +7°C° 0 mm 1 m/S 688 mmHg 52%
    04:00 +7°C° 0 mm 1 m/S 688 mmHg 52%
    05:00 +6°C° 0 mm 1 m/S 688 mmHg 52%
    06:00 +6°C° 0 mm 1 m/S 687 mmHg 53%
    07:00 +7°C° 0 mm 1 m/S 688 mmHg 52%
    08:00 +8°C° 0 mm 1 m/S 688 mmHg 50%
    09:00 +9°C° 0 mm 1 m/S 688 mmHg 49%
    10:00 +9°C° 0.1 mm 1 m/S 687 mmHg 49%
    11:00 +10°C° 0.1 mm 1 m/S 687 mmHg 49%
    12:00 +10°C° 0.1 mm 1 m/S 686 mmHg 48%
    13:00 +10°C° 0.1 mm 1 m/S 686 mmHg 50%
    14:00 +10°C° 0.1 mm 1 m/S 686 mmHg 53%
    15:00 +10°C° 0.1 mm 1 m/S 685 mmHg 55%
    16:00 +9°C° 0 mm 1 m/S 685 mmHg 59%
    17:00 +8°C° 0 mm 1 m/S 685 mmHg 63%
    18:00 +8°C° 0 mm 1 m/S 685 mmHg 67%
    19:00 +7°C° 0.3 mm 1 m/S 685 mmHg 70%
    20:00 +7°C° 0.3 mm 1 m/S 685 mmHg 72%
    21:00 +7°C° 0.3 mm 1 m/S 685 mmHg 74%
    22:00 +7°C° 0.3 mm 1 m/S 685 mmHg 76%
    23:00 +7°C° 0.3 mm 1 m/S 685 mmHg 77%
    Mehr zeigen